Location: Bakhuizen
(52.8696°N, 5.4575°E)
Time: 08:28:13
(UTC+00:00)

Lacrosse 5 - Pass Details

Date: 11 May 2021
Orbit: 715 x 724 km, 57.0° (Epoch: 15 June)

Event Time Altitude Azimuth Distance (km) Brightness Sun altitude
Exits shadow 23:54:45 19° 129° (SE) 1,689 3.5 -18.9°
Maximum altitude 23:54:57 19° 126° (SE) 1,688 3.5 -18.9°
Drops below altitude 10° 23:58:24 10° 83° (E) 2,205 4.5 -18.8°
Sets 00:01:24 0° 66° (ENE) 3,132 5.6 -18.8°
